Location: Bruderhein
(53.8035°N, 112.9265°W)
Time: 10:01:27
(UTC+00:00)

Meteor 1-19 Rocket - Pass Details

Date: 07 December 2023
Orbit: 806 x 928 km, 81.2° (Epoch: 04 March)

Event Time Altitude Azimuth Distance (km) Brightness Sun altitude
Exits shadow 11:21:07 - 355° (N) 3,343 7.4 -35.9°
Reaches altitude 10° 11:24:59 10° 24° (NNE) 2,641 7.1 -35.4°
Maximum altitude 11:26:41 11° 41° (NE) 2,552 7.2 -35.1°
Drops below altitude 10° 11:28:23 10° 57° (ENE) 2,629 7.4 -34.9°
Sets 11:33:10 0° 92° (E) 3,547 8.5 -34.2°
